Location: Newark
(27.9675°N, 86.8869°E)
Time: 01:58:41
(UTC+00:00)

Courier 1B Rocket - Pass Details

Date: 15 October 2019
Orbit: 920 x 1202 km, 28.2° (Epoch: 14 November)

Event Time Altitude Azimuth Distance (km) Brightness Sun altitude
Rises 00:59:44 0° 266° (W) 3,595 7.4 9.4°
Reaches altitude 10° 01:02:18 10° 267° (W) 2,677 6.8 9.9°
Maximum altitude 01:08:48 88° 357° (N) 1,002 5.3 11.3°
Drops below altitude 10° 01:15:47 10° 87° (E) 2,869 9.1 12.8°
Sets 01:18:37 0° 87° (E) 3,868 9.6 13.4°
